| time (UTC) | temp C | wind direction | speed KPH | gust KPH | rain 1hr cm | rain 24hr cm | rain mn cm | humidity % | barometer mb |
| 20260503184310 | 21 | 265 | 11.3 | 24.1 | 0.00 | 0.41 | 0.03 | 41 | 1018.7 |
| 20260503183327 | 21 | 338 | 8.0 | 19.3 | 0.00 | 0.41 | 0.03 | 40 | 1018.7 |
| 20260503182317 | 21 | 304 | 11.3 | 22.5 | 0.00 | 0.41 | 0.03 | 45 | 1019.0 |
| 20260503181320 | 20 | 272 | 12.9 | 22.5 | 0.00 | 0.41 | 0.03 | 44 | 1019.2 |
| 20260503180334 | 21 | 229 | 8.0 | 17.7 | 0.00 | 0.41 | 0.03 | 41 | 1019.1 |
| 20260503175309 | 20 | 139 | 6.4 | 19.3 | 0.00 | 0.61 | 0.03 | 47 | 1019.3 |
| 20260503174322 | 20 | 257 | 14.5 | 27.4 | 0.00 | 0.61 | 0.03 | 44 | 1019.4 |
| 20260503173320 | 20 | 234 | 8.0 | 24.1 | 0.00 | 0.61 | 0.03 | 46 | 1019.5 |
| 20260503172316 | 20 | 286 | 8.0 | 20.9 | 0.00 | 0.61 | 0.03 | 45 | 1019.6 |
| 20260503171309 | 20 | 289 | 8.0 | 24.1 | 0.00 | 0.61 | 0.03 | 48 | 1019.7 |
| 20260503170346 | 20 | 296 | 4.8 | 19.3 | 0.00 | 0.61 | 0.03 | 47 | 1019.8 |
| 20260503150345 | 16 | 298 | 6.4 | 17.7 | 0.00 | 1.80 | 0.03 | 52 | 1020.7 |
| 20260503140315 | 15 | 307 | 8.0 | 20.9 | 0.00 | 3.20 | 0.03 | 58 | 1020.5 |
| 20260503131323 | 13 | 292 | 4.8 | 16.1 | 0.00 | 3.61 | 0.03 | 64 | 1020.6 |
| 20260503130312 | 12 | 294 | 8.0 | 16.1 | 0.00 | 3.61 | 0.03 | 71 | 1020.6 |
| 20260503110349 | 7 | 309 | 3.2 | 11.3 | 0.00 | 4.39 | 0.03 | 85 | 1019.1 |
| 20260503090314 | 7 | 297 | 4.8 | 8.0 | 0.10 | 6.10 | 0.03 | 89 | 1017.9 |
| 20260503081310 | 8 | 271 | 4.8 | 8.0 | 0.00 | 5.99 | 0.00 | 90 | 1017.3 |
| 20260503080348 | 8 | 277 | 3.2 | 6.4 | 0.00 | 5.99 | 0.00 | 90 | 1017.2 |
| 20260503072309 | 9 | 265 | 4.8 | 9.7 | 0.00 | 5.99 | 0.00 | 91 | 1016.8 |
| 20260503071312 | 9 | 272 | 4.8 | 9.7 | 0.00 | 5.99 | 0.00 | 91 | 1016.6 |
| 20260503070323 | 9 | 298 | 4.8 | 11.3 | 0.00 | 5.99 | 0.00 | 92 | 1016.5 |
| 20260503060321 | 10 | 247 | 4.8 | 11.3 | 0.00 | 5.99 | 0.00 | 93 | 1016.1 |
| 20260503054318 | 10 | 269 | 3.2 | 9.7 | 0.00 | 5.99 | 0.00 | 94 | 1016.2 |
| 20260503053332 | 11 | 259 | 4.8 | 9.7 | 0.00 | 5.99 | 0.00 | 94 | 1016.1 |
| 20260503052314 | 11 | 286 | 3.2 | 8.0 | 0.00 | 5.99 | 0.00 | 94 | 1016.0 |
| 20260503051335 | 11 | 277 | 4.8 | 11.3 | 0.00 | 5.99 | 0.00 | 94 | 1016.1 |
| 20260503050329 | 11 | 269 | 4.8 | 11.3 | 0.00 | 5.99 | 0.00 | 94 | 1016.1 |
| 20260503045349 | 11 | 270 | 4.8 | 9.7 | 0.00 | 5.99 | 0.00 | 93 | 1016.0 |
| 20260503044320 | 11 | 259 | 4.8 | 9.7 | 0.00 | 5.99 | 0.00 | 93 | 1016.0 |
| 20260503043340 | 11 | 279 | 3.2 | 6.4 | 0.00 | 5.99 | 0.00 | 93 | 1016.0 |
| 20260503042312 | 11 | 265 | 3.2 | 6.4 | 0.00 | 5.99 | 0.00 | 93 | 1015.9 |
| 20260503041332 | 11 | 259 | 3.2 | 9.7 | 0.00 | 5.99 | 0.00 | 93 | 1015.9 |
| 20260503040321 | 11 | 262 | 3.2 | 9.7 | 0.00 | 5.99 | 0.00 | 93 | 1015.8 |
| 20260503035320 | 11 | 254 | 4.8 | 6.4 | 0.00 | 5.99 | 1.52 | 93 | 1015.6 |
| 20260503034315 | 11 | 247 | 3.2 | 6.4 | 0.00 | 5.99 | 1.52 | 93 | 1015.5 |
| 20260503033322 | 11 | 261 | 3.2 | 6.4 | 0.00 | 5.99 | 1.52 | 94 | 1015.5 |
| 20260503032317 | 11 | 273 | 3.2 | 6.4 | 0.00 | 5.99 | 1.52 | 94 | 1015.4 |
| 20260503031313 | 11 | 271 | 3.2 | 6.4 | 0.00 | 5.99 | 1.52 | 94 | 1015.2 |
| 20260503030316 | 11 | 269 | 3.2 | 6.4 | 0.00 | 5.99 | 1.52 | 94 | 1015.2 |
| 20260503025312 | 11 | 274 | 0.0 | 1.6 | 0.00 | 5.99 | 1.52 | 93 | 1015.1 |
| 20260503024312 | 11 | 274 | 0.0 | 3.2 | 0.00 | 5.99 | 1.52 | 93 | 1015.3 |
| 20260503023328 | 11 | 275 | 1.6 | 4.8 | 0.00 | 5.99 | 1.52 | 93 | 1015.3 |
| 20260503022329 | 11 | 277 | 1.6 | 3.2 | 0.00 | 5.99 | 1.52 | 93 | 1015.3 |
| 20260503021323 | 11 | 262 | 1.6 | 3.2 | 0.00 | 5.99 | 1.52 | 93 | 1015.3 |
| 20260503020316 | 12 | 289 | 3.2 | 4.8 | 0.00 | 5.99 | 1.52 | 93 | 1015.3 |
| 20260503015316 | 12 | 285 | 3.2 | 4.8 | 0.00 | 5.99 | 1.52 | 93 | 1015.2 |
| 20260503014309 | 12 | 284 | 3.2 | 4.8 | 0.00 | 5.99 | 1.52 | 93 | 1015.0 |
| 20260503013328 | 12 | 287 | 1.6 | 3.2 | 0.00 | 5.99 | 1.52 | 93 | 1014.8 |
| 20260503012321 | 12 | 287 | 1.6 | 3.2 | 0.00 | 5.99 | 1.52 | 92 | 1014.6 |
| 20260503011342 | 12 | 293 | 1.6 | 3.2 | 0.00 | 5.99 | 1.52 | 93 | 1014.6 |
| 20260503010316 | 12 | 300 | 1.6 | 3.2 | 0.00 | 5.99 | 1.52 | 92 | 1014.4 |
| 20260503005311 | 12 | 300 | 1.6 | 3.2 | 0.00 | 5.99 | 1.52 | 92 | 1014.1 |
| 20260503004318 | 12 | 309 | 1.6 | 3.2 | 0.00 | 5.99 | 1.52 | 92 | 1014.1 |
| 20260503003340 | 12 | 329 | 1.6 | 3.2 | 0.00 | 5.99 | 1.52 | 92 | 1014.0 |
| 20260503002337 | 12 | 339 | 0.0 | 1.6 | 0.00 | 5.99 | 1.52 | 91 | 1013.7 |
| 20260503001316 | 13 | 319 | 0.0 | 3.2 | 0.00 | 5.99 | 1.52 | 91 | 1013.6 |
| 20260503000313 | 13 | 326 | 1.6 | 4.8 | 0.00 | 5.99 | 1.52 | 91 | 1013.6 |
| 20260502235309 | 13 | 329 | 3.2 | 4.8 | 0.00 | 5.99 | 1.52 | 91 | 1013.2 |
| 20260502234313 | 13 | 332 | 0.0 | 3.2 | 0.00 | 5.99 | 1.52 | 91 | 1013.3 |
| 20260502233328 | 13 | 328 | 1.6 | 4.8 | 0.00 | 5.99 | 1.52 | 91 | 1013.2 |
| 20260502232331 | 13 | 355 | 1.6 | 4.8 | 0.00 | 5.99 | 1.52 | 91 | 1013.0 |
| 20260502231309 | 13 | 5 | 0.0 | 3.2 | 0.00 | 5.99 | 1.52 | 91 | 1012.9 |
| 20260502230327 | 13 | 355 | 1.6 | 3.2 | 0.00 | 5.99 | 1.52 | 91 | 1013.0 |
| 20260502225327 | 13 | 13 | 0.0 | 4.8 | 0.00 | 5.99 | 1.52 | 91 | 1013.3 |
| 20260502224323 | 13 | 335 | 3.2 | 4.8 | 0.00 | 5.99 | 1.52 | 91 | 1013.2 |
| 20260502223326 | 13 | 325 | 3.2 | 6.4 | 0.00 | 5.99 | 1.52 | 91 | 1013.1 |
| 20260502222339 | 13 | 335 | 3.2 | 6.4 | 0.00 | 5.99 | 1.52 | 91 | 1013.1 |
| 20260502221317 | 13 | 349 | 1.6 | 6.4 | 0.00 | 5.99 | 1.52 | 91 | 1012.9 |
| 20260502220313 | 13 | 11 | 3.2 | 8.0 | 0.00 | 5.99 | 1.52 | 91 | 1012.9 |
| 20260502215335 | 13 | 286 | 4.8 | 8.0 | 0.00 | 5.99 | 1.52 | 91 | 1012.9 |
| 20260502214315 | 13 | 330 | 1.6 | 6.4 | 0.00 | 5.99 | 1.52 | 91 | 1012.9 |
| 20260502213310 | 13 | 42 | 3.2 | 6.4 | 0.00 | 5.99 | 1.52 | 91 | 1012.6 |
| 20260502212312 | 13 | 50 | 4.8 | 9.7 | 0.00 | 5.99 | 1.52 | 91 | 1012.8 |
| 20260502211327 | 13 | 338 | 3.2 | 9.7 | 0.00 | 5.99 | 1.52 | 91 | 1012.9 |
| 20260502210331 | 13 | 19 | 3.2 | 12.9 | 0.00 | 5.99 | 1.52 | 91 | 1012.9 |
| 20260502205324 | 13 | 330 | 4.8 | 12.9 | 0.00 | 5.99 | 1.52 | 91 | 1012.9 |
| 20260502204327 | 13 | 329 | 4.8 | 9.7 | 0.00 | 5.99 | 1.52 | 91 | 1013.0 |
| 20260502203348 | 13 | 328 | 4.8 | 16.1 | 0.00 | 5.99 | 1.52 | 91 | 1012.7 |
| 20260502202321 | 13 | 342 | 4.8 | 12.9 | 0.00 | 5.99 | 1.52 | 92 | 1012.7 |
| 20260502201319 | 13 | 326 | 8.0 | 16.1 | 0.10 | 5.99 | 1.52 | 92 | 1013.0 |
| 20260502200321 | 13 | 317 | 3.2 | 12.9 | 0.10 | 5.99 | 1.52 | 93 | 1012.9 |
| 20260502195319 | 13 | 360 | 4.8 | 16.1 | 0.10 | 5.99 | 1.52 | 92 | 1012.9 |
| 20260502194313 | 13 | 330 | 6.4 | 16.1 | 0.20 | 5.99 | 1.52 | 92 | 1013.0 |
| 20260502193334 | 13 | 24 | 9.7 | 19.3 | 0.20 | 5.99 | 1.52 | 91 | 1013.1 |
| 20260502192334 | 13 | 297 | 6.4 | 12.9 | 0.30 | 5.99 | 1.52 | 93 | 1013.1 |
| 20260502191308 | 13 | 345 | 8.0 | 17.7 | 0.20 | 5.89 | 1.50 | 92 | 1013.1 |
| 20260502190322 | 13 | 20 | 4.8 | 17.7 | 0.20 | 5.89 | 1.50 | 93 | 1013.4 |
| 20260502185322 | 13 | 331 | 6.4 | 19.3 | 0.20 | 5.89 | 1.50 | 93 | 1013.4 |